{"data":{"norad_id":56324,"epoch":"2026-05-24T23:55:29.707104Z","epoch_age_seconds":71971,"freshness":"FRESH","line1":"1 56324U 23058H   26144.99687161 -.00011313  00000+0 -78010-3 0  9991","line2":"2 56324  97.4456 146.1409 0001065  66.0613 294.0726 15.05706078169337","mean_motion":15.05706078,"eccentricity":0.0001065,"inclination_deg":97.4456,"raan_deg":146.1409,"arg_perigee_deg":66.0613,"mean_anomaly_deg":294.0726,"bstar":-0.0007801,"rev_number":16933,"period_min":95.636194941361,"perigee_km":548.60136946296,"apogee_km":550.07692188198,"semimajor_km":6927.4761456725,"source":"CELESTRAK","updated_at":"2026-05-25T13:38:18.001106Z"}}